Stündliche Wetter Barra do Bugres

Heute, 27 Oktober, Dienstag

Zeit Temperatur Niederschläge Wind Luftdruck Luftfeuchtigkeit
00:00 +26°C° 0 mm 1 m/S 742 mmHg 92%
01:00 +25°C° 0 mm 1 m/S 742 mmHg 94%
02:00 +23°C° 0 mm 0 m/S 742 mmHg 96%
03:00 +23°C° 0 mm 0 m/S 742 mmHg 96%
04:00 +23°C° 0 mm 0 m/S 742 mmHg 97%
05:00 +23°C° 0 mm 0 m/S 742 mmHg 97%
06:00 +24°C° 0 mm 0 m/S 742 mmHg 90%
07:00 +28°C° 0 mm 1 m/S 743 mmHg 83%
08:00 +29°C° 0 mm 1 m/S 743 mmHg 76%
09:00 +33°C° 0 mm 1 m/S 743 mmHg 64%
10:00 +36°C° 0 mm 1 m/S 743 mmHg 52%
11:00 +40°C° 0 mm 1 m/S 742 mmHg 40%
12:00 +40°C° 0 mm 1 m/S 741 mmHg 39%
13:00 +40°C° 0 mm 1 m/S 740 mmHg 38%
14:00 +39°C° 0 mm 2 m/S 739 mmHg 37%
15:00 +38°C° 0.1 mm 2 m/S 738 mmHg 42%
16:00 +37°C° 0.1 mm 2 m/S 738 mmHg 47%
17:00 +34°C° 0.1 mm 1 m/S 738 mmHg 51%
18:00 +32°C° 0.3 mm 1 m/S 738 mmHg 59%
19:00 +31°C° 0.3 mm 1 m/S 739 mmHg 66%
20:00 +29°C° 0.3 mm 1 m/S 739 mmHg 73%
21:00 +28°C° 0.1 mm 1 m/S 740 mmHg 76%
22:00 +26°C° 0.1 mm 0 m/S 740 mmHg 79%
23:00 +25°C° 0.1 mm 0 m/S 740 mmHg 81%

Morgen, 28 Oktober, Mittwoch

Zeit Temperatur Niederschläge Wind Luftdruck Luftfeuchtigkeit
00:00 +25°C° 0 mm 0 m/S 740 mmHg 82%
01:00 +27°C° 0 mm 1 m/S 739 mmHg 83%
02:00 +27°C° 0 mm 1 m/S 739 mmHg 84%
03:00 +26°C° 0 mm 1 m/S 739 mmHg 84%
04:00 +26°C° 0 mm 1 m/S 740 mmHg 84%
05:00 +26°C° 0 mm 1 m/S 740 mmHg 84%
06:00 +29°C° 0 mm 1 m/S 740 mmHg 73%
07:00 +31°C° 0 mm 2 m/S 741 mmHg 62%
08:00 +35°C° 0 mm 2 m/S 741 mmHg 51%
09:00 +37°C° 0 mm 2 m/S 741 mmHg 45%
10:00 +39°C° 0 mm 2 m/S 741 mmHg 38%
11:00 +42°C° 0 mm 3 m/S 740 mmHg 32%
12:00 +42°C° 0 mm 3 m/S 740 mmHg 32%
13:00 +41°C° 0 mm 2 m/S 739 mmHg 32%
14:00 +41°C° 0 mm 2 m/S 738 mmHg 32%
15:00 +40°C° 0 mm 2 m/S 738 mmHg 35%
16:00 +39°C° 0 mm 2 m/S 738 mmHg 37%
17:00 +38°C° 0 mm 2 m/S 738 mmHg 39%
18:00 +36°C° 0.1 mm 2 m/S 738 mmHg 46%
19:00 +33°C° 0.1 mm 1 m/S 738 mmHg 54%
20:00 +30°C° 0.1 mm 1 m/S 739 mmHg 61%
21:00 +30°C° 0 mm 1 m/S 739 mmHg 64%
22:00 +29°C° 0 mm 1 m/S 739 mmHg 67%
23:00 +29°C° 0 mm 1 m/S 739 mmHg 70%

übermorgen, 29 Oktober, Donnerstag

Zeit Temperatur Niederschläge Wind Luftdruck Luftfeuchtigkeit
00:00 +28°C° 0.3 mm 1 m/S 739 mmHg 74%
01:00 +27°C° 0.3 mm 1 m/S 739 mmHg 79%
02:00 +26°C° 0.3 mm 1 m/S 739 mmHg 84%
03:00 +26°C° 0.5 mm 1 m/S 739 mmHg 85%
04:00 +26°C° 0.5 mm 1 m/S 740 mmHg 86%
05:00 +26°C° 0.5 mm 1 m/S 741 mmHg 87%
06:00 +28°C° 0.1 mm 1 m/S 741 mmHg 80%
07:00 +30°C° 0.1 mm 1 m/S 742 mmHg 73%
08:00 +32°C° 0.1 mm 1 m/S 742 mmHg 65%
09:00 +35°C° 0 mm 1 m/S 742 mmHg 54%
10:00 +39°C° 0 mm 1 m/S 742 mmHg 44%
11:00 +42°C° 0 mm 2 m/S 742 mmHg 33%
12:00 +37°C° 2.1 mm 2 m/S 741 mmHg 51%
13:00 +33°C° 2.1 mm 3 m/S 740 mmHg 70%
14:00 +27°C° 2.1 mm 4 m/S 739 mmHg 89%
15:00 +26°C° 3.5 mm 4 m/S 739 mmHg 90%
16:00 +26°C° 3.5 mm 4 m/S 740 mmHg 92%
17:00 +25°C° 3.5 mm 4 m/S 740 mmHg 94%
18:00 +25°C° 0.3 mm 3 m/S 741 mmHg 94%
19:00 +25°C° 0.3 mm 2 m/S 742 mmHg 95%
20:00 +24°C° 0.3 mm 1 m/S 743 mmHg 95%
21:00 +24°C° 0.1 mm 1 m/S 743 mmHg 96%
22:00 +24°C° 0.1 mm 1 m/S 743 mmHg 96%
23:00 +22°C° 0.1 mm 0 m/S 744 mmHg 97%

30 Oktober, Freitag

Zeit Temperatur Niederschläge Wind Luftdruck Luftfeuchtigkeit
00:00 +22°C° 0.2 mm 0 m/S 743 mmHg 97%
01:00 +22°C° 0.2 mm 0 m/S 743 mmHg 97%
02:00 +22°C° 0.2 mm 0 m/S 743 mmHg 97%
03:00 +22°C° 0 mm 0 m/S 743 mmHg 97%
04:00 +24°C° 0 mm 1 m/S 743 mmHg 97%
05:00 +24°C° 0 mm 1 m/S 743 mmHg 97%
06:00 +25°C° 0 mm 1 m/S 744 mmHg 94%
07:00 +25°C° 0 mm 1 m/S 745 mmHg 91%
08:00 +26°C° 0 mm 1 m/S 745 mmHg 88%
09:00 +28°C° 0 mm 1 m/S 745 mmHg 78%
10:00 +31°C° 0 mm 1 m/S 745 mmHg 67%
11:00 +34°C° 0 mm 2 m/S 745 mmHg 56%
12:00 +34°C° 0.4 mm 2 m/S 744 mmHg 57%
13:00 +34°C° 0.4 mm 2 m/S 743 mmHg 57%
14:00 +34°C° 0.4 mm 2 m/S 742 mmHg 57%
15:00 +32°C° 1.1 mm 2 m/S 742 mmHg 64%
16:00 +31°C° 1.1 mm 1 m/S 742 mmHg 70%
17:00 +30°C° 1.1 mm 1 m/S 742 mmHg 77%
18:00 +29°C° 0.5 mm 1 m/S 743 mmHg 79%
19:00 +27°C° 0.5 mm 1 m/S 743 mmHg 81%
20:00 +26°C° 0.5 mm 1 m/S 744 mmHg 83%
21:00 +26°C° 0 mm 1 m/S 744 mmHg 83%
22:00 +26°C° 0 mm 1 m/S 744 mmHg 84%
23:00 +25°C° 0 mm 1 m/S 745 mmHg 84%

31 Oktober, Samstag

Zeit Temperatur Niederschläge Wind Luftdruck Luftfeuchtigkeit
00:00 +25°C° 0 mm 1 m/S 744 mmHg 83%
01:00 +25°C° 0 mm 1 m/S 744 mmHg 82%
02:00 +25°C° 0 mm 1 m/S 743 mmHg 81%
03:00 +25°C° 0 mm 1 m/S 744 mmHg 81%
04:00 +25°C° 0 mm 1 m/S 744 mmHg 80%
05:00 +25°C° 0 mm 1 m/S 744 mmHg 79%
06:00 +26°C° 0 mm 1 m/S 745 mmHg 72%
07:00 +28°C° 0 mm 2 m/S 745 mmHg 65%
08:00 +30°C° 0 mm 2 m/S 746 mmHg 57%
09:00 +31°C° 0 mm 2 m/S 746 mmHg 52%
10:00 +34°C° 0 mm 2 m/S 745 mmHg 46%
11:00 +36°C° 0 mm 2 m/S 745 mmHg 41%
12:00 +36°C° 0 mm 2 m/S 744 mmHg 40%
13:00 +37°C° 0 mm 2 m/S 743 mmHg 38%
14:00 +37°C° 0 mm 2 m/S 743 mmHg 37%
15:00 +36°C° 0 mm 2 m/S 742 mmHg 40%
16:00 +35°C° 0 mm 2 m/S 742 mmHg 43%
17:00 +35°C° 0 mm 2 m/S 742 mmHg 45%
18:00 +32°C° 0 mm 2 m/S 742 mmHg 49%
19:00 +30°C° 0 mm 1 m/S 743 mmHg 53%
20:00 +29°C° 0 mm 1 m/S 743 mmHg 57%
21:00 +28°C° 0 mm 1 m/S 743 mmHg 58%
22:00 +28°C° 0 mm 1 m/S 744 mmHg 60%
23:00 +28°C° 0 mm 1 m/S 744 mmHg 61%

1 November, Sonntag

Zeit Temperatur Niederschläge Wind Luftdruck Luftfeuchtigkeit
00:00 +27°C° 0 mm 1 m/S 744 mmHg 63%
01:00 +27°C° 0 mm 1 m/S 743 mmHg 64%
02:00 +27°C° 0 mm 1 m/S 743 mmHg 66%
03:00 +26°C° 0 mm 1 m/S 743 mmHg 66%
04:00 +26°C° 0 mm 1 m/S 743 mmHg 67%
05:00 +26°C° 0 mm 1 m/S 743 mmHg 68%
06:00 +28°C° 0 mm 1 m/S 744 mmHg 63%
07:00 +29°C° 0 mm 1 m/S 744 mmHg 58%
08:00 +31°C° 0 mm 2 m/S 745 mmHg 53%
09:00 +34°C° 0 mm 2 m/S 744 mmHg 48%
10:00 +36°C° 0 mm 2 m/S 744 mmHg 42%
11:00 +38°C° 0 mm 2 m/S 744 mmHg 36%
12:00 +36°C° 0 mm 1 m/S 743 mmHg 36%
13:00 +36°C° 0 mm 1 m/S 742 mmHg 35%
14:00 +36°C° 0 mm 1 m/S 741 mmHg 35%
15:00 +35°C° 0 mm 1 m/S 741 mmHg 37%
16:00 +35°C° 0 mm 1 m/S 740 mmHg 39%
17:00 +34°C° 0 mm 1 m/S 740 mmHg 41%
18:00 +33°C° 0 mm 1 m/S 740 mmHg 43%
19:00 +29°C° 0 mm 0 m/S 741 mmHg 46%
20:00 +28°C° 0 mm 0 m/S 741 mmHg 48%
21:00 +28°C° 0 mm 0 m/S 742 mmHg 49%
22:00 +28°C° 0 mm 0 m/S 742 mmHg 49%
23:00 +27°C° 0 mm 0 m/S 742 mmHg 50%
Mehr zeigen